Flag for Mexico Weather past 2 weeks in Cozumel, Quintana Roo, Mexico

Now
86 °F

Broken clouds.


Feels Like: 97 °F
Forecast: 80 / 87 °F
Wind: 17 mph from East

Location: Cozumel Civ / Mil

Current Time: Jul 2, 2015 at 2:11:09 PM

Latest Report: Jul 2, 2015 at 1:43 PM


Visibility: 8 mi

Pressure: 30.01 "Hg

Humidity: 75%

Dew point: 77 °F

Location of CozumelLocation

Historic Weather in Cozumel — Graph

°F

Cozumel temperature yesterday

Maximum temperature yesterday: 84 °F (at 2:50 PM)
Minimum temperature yesterday: 72 °F (at 5:51 PM)
Average temperature yesterday: 77 °F

Past Weeks' High & Low Weather Summary

 TemperatureHumidityPressure
High86 °F (Jun 27, 1:41 PM)100% (Jun 17, 10:41 PM)30.12 "Hg (Jun 17, 10:41 PM)
Low70 °F (Jun 24, 1:50 AM)62% (Jun 28, 3:42 PM)29.94 "Hg (Jun 17, 6:44 PM)
Average78 °F92%30.04 "Hg
* Reported Jun 17 12:49 PM — Jul 2 12:43 PM, Cozumel, Weather by CustomWeather, © 2015

Note: Actual official high and low records may vary slightly from our data, if they occured in-between our weather recording intervals... More about our weather records

Advertising

Cozumel weather history for previous 24 hours

 ConditionsComfort  
Time TempWeatherWind HumidityBarometerVisibility
12:43 PM
Thu, Jul 2
84 °FBroken clouds.18 mph74%30.01 "Hg8 mi
11:40 AM84 °FBroken clouds.9 mph79%30.03 "Hg8 mi
10:40 AM82 °FBroken clouds.15 mph79%30.03 "Hg8 mi
8:47 AM79 °FBroken clouds.6 mph94%30.02 "Hg8 mi
6:49 AM72 °FPassing clouds.No wind100%29.98 "Hg7 mi
5:50 AM72 °FPartly cloudy.No wind100%29.98 "Hg7 mi
4:42 AM73 °FPartly cloudy.No wind100%29.98 "Hg7 mi
3:45 AM73 °FPassing clouds.No wind100%30.02 "Hg7 mi
12:46 AM75 °FPassing clouds.No wind100%30.00 "Hg7 mi
11:49 PM
Wed, Jul 1
73 °FPassing clouds.No wind100%30.04 "Hg7 mi
10:42 PM75 °FPassing clouds.No wind100%30.03 "Hg7 mi
9:42 PM75 °FPassing clouds.No wind100%30.05 "Hg7 mi
8:46 PM73 °FPartly cloudy.No wind100%30.01 "Hg7 mi
6:51 PM73 °FBroken clouds.No wind100%29.97 "Hg7 mi
5:51 PM72 °FBroken clouds.No wind100%30.00 "Hg6 mi
4:47 PM82 °FPartly sunny.No wind89%29.98 "Hg8 mi
3:49 PM84 °FPartly sunny.14 mph84%30.02 "Hg8 mi
2:50 PM84 °FPartly sunny.14 mph84%30.02 "Hg8 mi
Weather by CustomWeather, © 2015

See weather overviewHow to use our weather pages